Location: Byhalia Creek
(34.8270°N, 89.8040°W)
Time: 20:19:58
(UTC+00:00)

SL-24 R/B - Pass Details

Date: 22 April 2026
Orbit: 501 x 977 km, 97.5° (Epoch: 21 May)

Event Time Altitude Azimuth Distance (km) Brightness Sun altitude
Rises 10:00:37 0° 14° (NNE) 2,804 8.1 -15.7°
Reaches altitude 10° 10:02:52 10° 17° (NNE) 1,844 7.1 -15.3°
Maximum altitude 10:06:46 67° 100° (E) 569 4.0 -14.6°
Drops below altitude 10° 10:10:23 10° 184° (S) 1,711 6.0 -13.9°
Enters shadow 10:11:05 - 185° (S) 2,009 6.4 -13.8°
